Location: Christianberg
(48.9086°N, 14.0209°E)
Time: 20:24:49
(UTC+00:00)

ADEOS II - Pass Details

Date: 20 June 2021
Orbit: 799 x 800 km, 98.6° (Epoch: 02 August)

Event Time Altitude Azimuth Distance (km) Brightness Sun altitude
Rises 01:24:09 0° 14° (NNE) 3,323 6.9 -11.3°
Reaches altitude 10° 01:26:29 10° 15° (NNE) 2,388 5.9 -11.1°
Maximum altitude 01:31:47 86° 105° (ESE) 810 2.1 -10.6°
Enters shadow 01:36:50 11° 194° (SSW) 2,289 3.9 -10.2°
